Погода в Кралендейке

Карибские Нидерланды     12°08′59″N   68°16′34″W
темп.,
°C
ветер,
м/с
пор.,
м/с
влажн.,
%
обл.,
%
осадки,
мм/ч
давл.,
гПа
погр.,
м
7 марта, вс
вс723:00+26в9118154 0.0 1014864
02:00+26в10118252 0.0 1013980
05:00+26в11128183 0.1 10121005
08:00+27в10128092 0.2 10141043
11:00+26в10128287 0.1 10161013
14:00+26в10128147 0.1 1013916
17:00+26в9118297 0.0 1012881
20:00+26в9118268 0.0 1013852
8 марта, пн
пн823:00+26всв1012820 0.0 1015920
02:00+26всв9118229 0.1 1014985
05:00+26всв10128274 0.1 1013925
08:00+26в10128387 0.2 1015917
11:00+26всв9118294 0.1 1017928
14:00+26в9118183 0.8 1014897
17:00+26всв10118079 0.1 1013892
20:00+26всв10128040 0.1 1014955
9 марта, вт
вт923:00+26всв911790 0.1 10161063
02:00+26в911780 0.1 10141096
05:00+26в8107945 0.3 10141018
08:00+26всв898272 0.9 1015820
11:00+26в9118026 2.4 1016980
14:00+26в9117750 3.3 10141072
17:00+26всв8978100 0.1 1012985
20:00+26всв9107699 0.2 10131132
10 марта, ср
ср1023:00+26в9107893 0.2 10151040
02:00+26в897581 0.3 10141058
05:00+25в787899 0.1 1013838
08:00+25в677988 0.6 1014763
11:00+26в797695 0.3 1015911
14:00+26в787556 0.3 10131054
17:00+26всв687717 0.0 1011895
20:00+26всв787938 0.0 1013877
11 марта, чт
чт1123:00+26в797870 0.0 1014918
02:00+26в677885 0.0 1013908
05:00+26в787981 0.1 1012926
08:00+26в788161 0.3 1014817
11:00+26вюв78792 1.3 1015788
14:00+26в67781 1.4 1012781
17:00+26в67790 0.0 1010840
20:00+26всв89810 0.0 1012880